Find STARLINK-37977

NORAD ID: 799501034 Int'l Des: 2026-146L Constellation: starlink operational

当前视图

正在加载3D地球...

About STARLINK-37977

STARLINK-37977 (NORAD 799501034) is a starlink constellation satellite launched Jun 12, 2026

关于 STARLINK-37977

正在加载描述...

即将过境

Passes for default location (London). Set your location on the main map for personalized predictions.

高度历史

Loading altitude history...

两行轨道根数

1 99999C 2026146L 26176.34076389 .00622900 00000-0 961910-4 0 1764
2 99999 97.2857 21.9973 0011250 278.7925 250.3735 16.03785837 19
Epoch: Jun 25, 2026 • Age: 10 hours